Location: Casone le Fosse
(44.6547°N, 12.1103°E)
Time: 03:18:55
(UTC+00:00)

CRYOSAT 2 - Pass Details

Date: 29 October 2020
Orbit: 715 x 724 km, 92.0° (Epoch: 01 December)

Event Time Altitude Azimuth Distance (km) Brightness Sun altitude
Rises 17:43:40 0° 7° (N) 3,132 7.6 -18.2°
Reaches altitude 10° 17:45:59 10° 11° (N) 2,207 6.8 -18.6°
Maximum altitude 17:50:50 64° 93° (E) 792 4.3 -19.5°
Drops below altitude 10° 17:55:38 10° 175° (S) 2,190 6.8 -20.3°
Sets 17:57:55 0° 178° (S) 3,105 7.6 -20.7°
